TimeAKDT,TemperatureF,Dew PointF,Humidity,Sea Level PressureIn,VisibilityMPH,Wind Direction,Wind SpeedMPH,Gust SpeedMPH,PrecipitationIn,Events,Conditions,WindDirDegrees,DateUTC
12:16 AM,39.2,30.2,70,30.17,10.0,SE,5.8,-,N/A,,Overcast,140,2012-10-03 08:16:00
12:36 AM,39.2,30.2,70,30.17,10.0,SSE,5.8,-,N/A,,Overcast,160,2012-10-03 08:36:00
12:56 AM,39.2,28.4,65,30.17,10.0,SSE,6.9,-,N/A,,Overcast,160,2012-10-03 08:56:00
1:16 AM,39.2,28.4,65,30.16,10.0,SSE,5.8,-,N/A,,Overcast,160,2012-10-03 09:16:00
1:36 AM,39.2,28.4,65,30.17,10.0,SSE,4.6,-,N/A,,Mostly Cloudy,160,2012-10-03 09:36:00
1:56 AM,39.2,28.4,65,30.17,10.0,Calm,Calm,-,N/A,,Overcast,0,2012-10-03 09:56:00
2:16 AM,39.2,28.4,65,30.18,10.0,Calm,Calm,-,N/A,,Overcast,0,2012-10-03 10:16:00
2:36 AM,39.2,28.4,65,30.18,10.0,SE,5.8,-,N/A,,Overcast,130,2012-10-03 10:36:00
2:56 AM,39.2,28.4,65,30.18,10.0,SE,4.6,-,N/A,,Overcast,130,2012-10-03 10:56:00
3:16 AM,39.2,28.4,65,30.18,10.0,South,4.6,-,N/A,,Overcast,170,2012-10-03 11:16:00
3:36 AM,39.2,28.4,65,30.18,10.0,SSE,5.8,-,N/A,,Overcast,160,2012-10-03 11:36:00
3:56 AM,39.2,30.2,70,30.19,10.0,South,5.8,-,N/A,,Overcast,170,2012-10-03 11:56:00
4:16 AM,39.2,30.2,70,30.19,10.0,SSE,5.8,-,N/A,,Overcast,160,2012-10-03 12:16:00
4:36 AM,39.2,30.2,70,30.19,10.0,South,3.5,-,N/A,,Overcast,180,2012-10-03 12:36:00
4:56 AM,39.2,30.2,70,30.19,10.0,Calm,Calm,-,N/A,,Overcast,0,2012-10-03 12:56:00
5:16 AM,39.2,30.2,70,30.19,10.0,Calm,Calm,-,N/A,,Overcast,0,2012-10-03 13:16:00
5:36 AM,39.2,30.2,70,30.19,10.0,South,3.5,-,N/A,,Overcast,180,2012-10-03 13:36:00
5:56 AM,39.2,30.2,70,30.20,10.0,SSE,3.5,-,N/A,,Overcast,160,2012-10-03 13:56:00
6:16 AM,39.2,30.2,70,30.20,10.0,SSE,4.6,-,N/A,,Overcast,160,2012-10-03 14:16:00
6:36 AM,39.2,30.2,70,30.20,10.0,South,4.6,-,N/A,,Overcast,180,2012-10-03 14:36:00
6:56 AM,39.2,30.2,70,30.20,10.0,Calm,Calm,-,N/A,,Overcast,0,2012-10-03 14:56:00
7:16 AM,39.2,30.2,70,30.20,10.0,South,5.8,-,N/A,,Overcast,170,2012-10-03 15:16:00
7:36 AM,39.2,30.2,70,30.19,10.0,South,3.5,-,N/A,,Overcast,190,2012-10-03 15:36:00
7:56 AM,39.2,30.2,70,30.19,10.0,South,4.6,-,N/A,,Overcast,190,2012-10-03 15:56:00
8:16 AM,39.2,30.2,70,30.19,10.0,Calm,Calm,-,N/A,,Overcast,0,2012-10-03 16:16:00
8:36 AM,37.4,30.2,75,30.18,10.0,SW,4.6,-,N/A,,Mostly Cloudy,230,2012-10-03 16:36:00
8:56 AM,37.4,30.2,75,30.18,10.0,Calm,Calm,-,N/A,,Mostly Cloudy,0,2012-10-03 16:56:00
9:16 AM,39.2,30.2,70,30.18,10.0,South,3.5,-,N/A,,Overcast,190,2012-10-03 17:16:00
9:36 AM,39.2,30.2,70,30.19,10.0,South,3.5,-,N/A,,Overcast,170,2012-10-03 17:36:00
9:56 AM,41.0,28.4,61,30.19,10.0,SSE,4.6,-,N/A,,Overcast,160,2012-10-03 17:56:00
10:16 AM,42.8,30.2,61,30.19,10.0,SSE,4.6,-,N/A,,Overcast,150,2012-10-03 18:16:00
10:36 AM,42.8,30.2,61,30.19,10.0,South,8.1,-,N/A,,Mostly Cloudy,170,2012-10-03 18:36:00
10:56 AM,42.8,30.2,61,30.19,10.0,SSE,5.8,-,N/A,,Overcast,150,2012-10-03 18:56:00
11:16 AM,42.8,30.2,61,30.19,10.0,SSE,8.1,-,N/A,,Mostly Cloudy,150,2012-10-03 19:16:00
11:36 AM,44.6,28.4,53,30.19,10.0,SSE,10.4,17.3,N/A,,Mostly Cloudy,160,2012-10-03 19:36:00
11:56 AM,44.6,30.2,57,30.19,10.0,SE,10.4,-,N/A,,Overcast,140,2012-10-03 19:56:00
12:16 PM,46.4,30.2,53,30.19,10.0,SSE,11.5,18.4,N/A,,Overcast,160,2012-10-03 20:16:00
12:36 PM,44.6,30.2,57,30.19,10.0,South,8.1,18.4,N/A,,Overcast,190,2012-10-03 20:36:00
12:56 PM,44.6,30.2,57,30.18,10.0,South,13.8,21.9,N/A,,Overcast,190,2012-10-03 20:56:00
1:16 PM,44.6,28.4,53,30.17,10.0,SSE,11.5,19.6,N/A,,Overcast,150,2012-10-03 21:16:00
1:36 PM,44.6,28.4,53,30.16,10.0,South,9.2,16.1,N/A,,Mostly Cloudy,180,2012-10-03 21:36:00
1:56 PM,46.4,28.4,50,30.15,10.0,SSE,8.1,-,N/A,,Scattered Clouds,160,2012-10-03 21:56:00
2:16 PM,46.4,28.4,50,30.13,10.0,SSE,9.2,-,N/A,,Mostly Cloudy,160,2012-10-03 22:16:00
2:36 PM,46.4,28.4,50,30.12,10.0,South,5.8,-,N/A,,Mostly Cloudy,170,2012-10-03 22:36:00
2:56 PM,46.4,28.4,50,30.12,10.0,South,12.7,21.9,N/A,,Mostly Cloudy,180,2012-10-03 22:56:00
3:16 PM,46.4,28.4,50,30.11,10.0,South,9.2,18.4,N/A,,Overcast,180,2012-10-03 23:16:00
3:36 PM,46.4,28.4,50,30.11,10.0,South,10.4,21.9,N/A,,Overcast,180,2012-10-03 23:36:00
3:56 PM,46.4,28.4,50,30.11,10.0,South,13.8,21.9,N/A,,Overcast,180,2012-10-03 23:56:00
4:16 PM,46.4,28.4,50,30.10,10.0,South,10.4,20.7,N/A,,Overcast,180,2012-10-04 00:16:00
4:36 PM,46.4,28.4,50,30.09,10.0,South,10.4,18.4,N/A,,Overcast,180,2012-10-04 00:36:00
4:56 PM,46.4,28.4,50,30.09,10.0,South,10.4,17.3,N/A,,Overcast,180,2012-10-04 00:56:00
5:16 PM,46.4,28.4,50,30.08,10.0,South,9.2,-,N/A,,Overcast,170,2012-10-04 01:16:00
5:36 PM,44.6,28.4,53,30.07,10.0,South,6.9,16.1,N/A,,Mostly Cloudy,170,2012-10-04 01:36:00
5:56 PM,46.4,28.4,50,30.07,10.0,South,9.2,20.7,N/A,,Mostly Cloudy,180,2012-10-04 01:56:00
6:16 PM,46.4,28.4,50,30.07,10.0,South,9.2,19.6,N/A,,Overcast,190,2012-10-04 02:16:00
6:36 PM,44.6,28.4,53,30.07,10.0,South,8.1,16.1,N/A,,Overcast,190,2012-10-04 02:36:00
6:56 PM,44.6,28.4,53,30.06,10.0,South,8.1,18.4,N/A,,Overcast,190,2012-10-04 02:56:00
7:16 PM,44.6,28.4,53,30.05,10.0,South,8.1,-,N/A,,Overcast,180,2012-10-04 03:16:00
7:36 PM,46.4,28.4,50,30.05,10.0,South,9.2,23.0,N/A,,Overcast,190,2012-10-04 03:36:00
7:56 PM,44.6,28.4,53,30.04,10.0,South,13.8,21.9,N/A,,Overcast,180,2012-10-04 03:56:00
8:16 PM,44.6,28.4,53,30.04,10.0,South,8.1,19.6,N/A,,Mostly Cloudy,190,2012-10-04 04:16:00
8:36 PM,44.6,30.2,57,30.03,10.0,South,5.8,-,N/A,,Scattered Clouds,180,2012-10-04 04:36:00
8:56 PM,44.6,30.2,57,30.03,10.0,South,5.8,-,N/A,,Mostly Cloudy,170,2012-10-04 04:56:00
9:16 PM,44.6,30.2,57,30.02,10.0,South,4.6,-,N/A,,Overcast,170,2012-10-04 05:16:00
9:36 PM,44.6,30.2,57,30.02,10.0,SSW,5.8,-,N/A,,Overcast,200,2012-10-04 05:36:00
9:56 PM,44.6,30.2,57,30.00,10.0,SSW,11.5,19.6,N/A,,Overcast,200,2012-10-04 05:56:00
10:16 PM,44.6,30.2,57,30.00,10.0,South,9.2,20.7,N/A,,Mostly Cloudy,190,2012-10-04 06:16:00
10:36 PM,44.6,32.0,61,30.01,10.0,South,10.4,29.9,N/A,,Mostly Cloudy,190,2012-10-04 06:36:00
10:56 PM,44.6,33.8,66,30.01,10.0,SSW,12.7,28.8,N/A,,Overcast,200,2012-10-04 06:56:00
11:16 PM,44.6,33.8,66,30.01,10.0,South,6.9,20.7,N/A,,Overcast,190,2012-10-04 07:16:00
11:36 PM,44.6,33.8,66,30.00,10.0,South,8.1,16.1,N/A,,Overcast,180,2012-10-04 07:36:00
11:56 PM,44.6,33.8,66,29.99,10.0,South,8.1,20.7,N/A,,Overcast,190,2012-10-04 07:56:00